This demonstration page uses our WeatherBlox Daily Observations layout. Learn more.

Left ArrowRight Arrow

38.20091, -84.87328

Hourly Observations for August 4, 2018

Temp ( °F °C ) Dew Point ( °F °C ) Humidity (%) Winds ( mph kmh ) Pressure ( in mb ) Visibility ( mi km ) Precip ( " mm )
12:53 am 00:53 Mostly Cloudy 71 21.7 68 20 90 90 Calm 30.09 1019 10 16 0.00 0.00
1:53 am 01:53 Clear 71 21.7 67 19.4 87 87 Calm 30.09 1019 10 16 0.00 0.00
2:53 am 02:53 Clear 72 22.2 67 19.4 84 84 Calm 30.09 1019 10 16 0.00 0.00
3:53 am 03:53 Mostly Clear 71 21.7 67 19.4 87 87 Calm 30.09 1019 10 16 0.00 0.00
4:53 am 04:53 Clear 68 20 66 18.9 93 93 SSE 3 6 30.10 1019 10 16 0.00 0.00
5:53 am 05:53 Clear 68 20 66 18.9 93 93 Calm 30.10 1019 10 16 0.00 0.00
6:53 am 06:53 Sunny 67 19.4 65 18.3 93 93 Calm 30.12 1020 8 13 0.00 0.00
7:53 am 07:53 Sunny 71 21.7 67 19.4 87 87 Calm 30.14 1021 10 16 0.00 0.00
8:53 am 08:53 Sunny 75 23.9 68 20 79 79 SSW 3 6 30.15 1021 10 16 0.00 0.00
9:53 am 09:53 Sunny 79 26.1 68 20 69 69 SW 7 11 30.16 1021 10 16 0.00 0.00
10:53 am 10:53 Sunny 83 28.3 69 20.6 63 63 SW 6 9 30.16 1021 10 16 0.00 0.00
11:53 am 11:53 Mostly Sunny 84 28.9 70 21.1 63 63 VRB 6 9 30.17 1022 10 16 0.00 0.00
12:53 pm 12:53 Sunny 87 30.6 70 21.1 57 57 VRB 6 9 30.16 1021 10 16 0.00 0.00
1:53 pm 13:53 Partly Cloudy 88 31.1 71 21.7 57 57 SSW 8 13 30.15 1021 10 16 0.00 0.00
2:53 pm 14:53 Sunny 88 31.1 69 20.6 54 54 Calm 30.14 1021 10 16 0.00 0.00
3:53 pm 15:53 Sunny 89 31.7 68 20 50 50 Calm 30.12 1020 10 16 0.00 0.00
4:53 pm 16:53 Partly Cloudy 88 31.1 69 20.6 54 54 SSW 3 6 30.11 1020 10 16 0.00 0.00
5:53 pm 17:53 Sunny 87 30.6 68 20 53 53 SW 5 7 30.10 1019 10 16 0.00 0.00
6:53 pm 18:53 Sunny 86 30 70 21.1 59 59 WSW 5 7 30.10 1019 10 16 0.00 0.00
7:53 pm 19:53 Sunny 83 28.3 72 22.2 70 70 Calm 30.10 1019 10 16 0.00 0.00
8:53 pm 20:53 Clear 81 27.2 72 22.2 74 74 Calm 30.11 1020 10 16 0.00 0.00
9:53 pm 21:53 Clear 76 24.4 71 21.7 85 85 Calm 30.12 1020 10 16 0.00 0.00
10:53 pm 22:53 Clear 75 23.9 70 21.1 84 84 Calm 30.14 1021 10 16 0.00 0.00
11:53 pm 23:53 Clear 73 22.8 70 21.1 90 90 Calm 30.14 1021 10 16 0.00 0.00

Powered by AerisWeather